This demonstration page uses our WeatherBlox Daily Observations layout. Learn more.

39.92423, -83.80882

Hourly Observations for April 25, 2019

Temp ( °F °C ) Dew Point ( °F °C ) Humidity (%) Winds ( mph kmh ) Pressure ( in mb ) Visibility ( mi km ) Precip ( " mm )
12:22 am 00:22 Cloudy 54 12 45 7 72 72 SE 6 9 29.9 1013 10 16.0934 0 0
12:56 am 00:56 Cloudy with Light Rain 54 12.2 46 7.8 75 75 SE 5 7 29.9 1013 10 16.0934 0 0.0254
1:21 am 01:21 Cloudy with Light Rain 54 12 43 6 67 67 E 6 9 29.89 1012 10 16.0934 0 0.0254
1:56 am 01:56 Cloudy with Light Rain 52 11.1 46 7.8 80 80 E 6 9 29.89 1012 10 16.0934 0 0.0254
2:56 am 02:56 Cloudy with Light Rain 51 10.6 48 8.9 89 89 ESE 6 9 29.87 1012 10 16.0934 0.01 0.254
3:09 am 03:09 Cloudy 52 11 48 9 88 88 ESE 9 15 29.86 1011 10 16.0934 0 0.0254
3:56 am 03:56 Cloudy 52 11.1 48 8.9 86 86 E 5 7 29.86 1011 10 16.0934 0 0.0254
4:46 am 04:46 Cloudy 52 11 48 9 88 88 ESE 6 9 29.87 1011 10 16.0934 0 0
4:56 am 04:56 Cloudy 52 11.1 48 8.9 86 86 ESE 6 9 29.86 1011 10 16.0934 0 0
5:48 am 05:48 Cloudy with Light Rain 52 11 48 9 88 88 ESE 6 9 29.86 1011 10 16.0934 0 0.0254
5:56 am 05:56 Cloudy with Light Rain 51 10.6 49 9.4 92 92 SE 6 9 29.85 1011 10 16.0934 0 0.0254
6:19 am 06:19 Cloudy with Light Rain 52 11 50 10 94 94 ESE 3 6 29.86 1011 10 16.0934 0 0.0254
6:28 am 06:28 Cloudy with Light Rain 52 11 50 10 94 94 E 3 6 29.86 1011 10 16.0934 0 0.0254
6:56 am 06:56 Cloudy with Light Rain 51 10.6 50 10 96 96 ESE 3 6 29.85 1011 10 16.0934 0 0.0254
7:15 am 07:15 Cloudy with Light Rain 52 11 52 11 100 100 ESE 3 6 29.87 1011 10 16.0934 0 0.0254
7:56 am 07:56 Cloudy with Light Rain 52 11.1 52 11.1 100 100 SE 5 7 29.86 1011 10 16.0934 0 0.0254
8:52 am 08:52 Cloudy 54 12 54 12 100 100 Calm 29.86 1011 8 12.87472 0 0.0254
8:56 am 08:56 Cloudy with Light Rain 54 12.2 54 12.2 100 100 Calm 29.86 1011 7 11.26538 0 0.0254
9:54 am 09:54 Cloudy 57 14 57 14 100 100 S 3 6 29.84 1010 8 12.87472 0 0.0254
9:56 am 09:56 Cloudy 57 13.9 57 13.9 100 100 Calm 29.84 1011 9 14.48406 0 0.0254
10:25 am 10:25 Cloudy with Light Rain 57 14 57 14 100 100 SW 5 7 29.84 1010 8 12.87472 0 0.0254
10:51 am 10:51 Cloudy with Light Rain 57 14 57 14 100 100 SSW 3 6 29.84 1010 2.5 4.02335 0 0.0254
10:56 am 10:56 Cloudy with Light Rain 58 14.4 58 14.4 100 100 SSW 3 6 29.84 1010 2 3.21868 0 0.0254
11:14 am 11:14 Cloudy with Light Rain 59 15 59 15 100 100 SW 3 6 29.82 1010 4 6.43736 0 0.0254
11:56 am 11:56 Cloudy with Light Rain 59 15 59 15 100 100 SSW 3 6 29.83 1010 4 6.43736 0 0.0254
12:18 pm 12:18 Cloudy with Rain 61 16 61 16 100 100 S 3 6 29.81 1009 5 8.0467 0 0.0254
12:52 pm 12:52 Cloudy with Light Rain 61 16 61 16 100 100 SSW 7 11 29.81 1009 10 16.0934 0 0
12:53 pm 12:53 Cloudy with Light Rain 60 15.6 60 15.6 100 100 SSW 6 9 29.82 1010 10 16.0934 0 0
1:07 pm 13:07 Cloudy with Light Rain 61 16 61 16 100 100 S 6 9 29.81 1009 10 16.0934 0 0
1:19 pm 13:19 Cloudy 61 16 61 16 100 100 S 7 11 29.8 1009 9 14.48406 0 0
1:56 pm 13:56 Cloudy with Light Rain 63 17.2 62 16.7 97 97 S 5 7 29.8 1009 10 16.0934 0 0
2:18 pm 14:18 Cloudy with Light Rain 64 18 63 17 94 94 SSW 3 6 29.77 1008 10 16.0934 0 0.0254
2:56 pm 14:56 Cloudy with Light Rain 64 17.8 62 16.7 93 93 Calm 29.78 1008 10 16.0934 0 0.0254
3:56 pm 15:56 Cloudy with Light Rain 65 18.3 63 17.2 93 93 SE 3 6 29.75 1008 10 16.0934 0 0.0254
4:07 pm 16:07 Cloudy 64 18 64 18 100 100 Calm 29.74 1007 10 16.0934 0 0.0254
4:56 pm 16:56 Cloudy with Rain 65 18.3 64 17.8 97 97 Calm 29.75 1008 7 11.26538 0 0.0254
5:08 pm 17:08 Cloudy with Rain 64 18 64 18 100 100 E 3 6 29.72 1006 5 8.0467 0 0
5:26 pm 17:26 Mostly Cloudy with Light Rain 64 18 64 18 100 100 E 8 13 29.71 1006 8 12.87472 0 0
5:56 pm 17:56 Mostly Cloudy with Mist and Fog 65 18.3 65 18.3 100 100 E 7 11 29.72 1006 4 6.43736 0 0
6:56 pm 18:56 Mostly Cloudy with Mist and Fog 65 18.3 65 18.3 100 100 E 6 9 29.7 1006 4 6.43736 0 0
7:56 pm 19:56 Partly Cloudy with Mist and Fog 64 17.8 64 17.8 100 100 E 8 13 29.66 1005 6 9.65604 0 0
8:56 pm 20:56 Mostly Cloudy 62 16.7 62 16.7 100 100 SE 7 11 29.64 1004 8 12.87472 0 0
9:56 pm 21:56 Mostly Cloudy 64 17.8 61 16.1 90 90 SE 12 19 29.6 1003 10 16.0934 0 0
10:23 pm 22:23 Cloudy with Rain 63 17 57 14 83 83 SW 20 31 29.61 1003 9 14.48406 0.01 0.254
10:56 pm 22:56 Cloudy with Rain 60 15.6 59 15 96 96 SSW 10 17 29.62 1003 10 16.0934 0.01 0.254
11:56 pm 23:56 Cloudy with Light Rain 59 15 59 15 100 100 S 10 17 29.57 1001 10 16.0934 0 0

Powered by AerisWeather